Météo aviation pour un terrain ou une ville
Choisir un ou une

Vous pouvez entrer RAPIDEMENT les premières lettres pour sélectionner

Aéroport choisi : LFCK - CASTRES - MAZAMET
Visibilité
NU FEW;300, NU OVC;800


Supérieure à 10 km

Soleil : Lever à 08:15 Coucher à 18:55
Date et heure locale 21/10/2019 06:42
Il fait nuit
Distance Terre - Lune
376915 kms

Phase actuelle: Dernier quartier
Température
Pression
Humidité
Force du vent
Direction du vent
Temps présent
Nuageux

Ensoleillement : 40 %
Heure d'observation : 2019/10/21 06:30. Soit il y a 0 H 12 mn
Décodage METAR, TAF et désign par Philippe Guiraud
METAR : 2019/10/21 04:30 LFCK 210430Z AUTO 29006KT 9999 FEW009 OVC025 12/10 Q1018
Prévisions (décodage des TAF)
Pas de prévisions (TAF) pour cette station
Historique pour les derniéres 24 heures
Carte satellite actuelle
Satellite Image